Погода в Поныри

Погода в Поныри : погода сейчас, прогноз погоды и архив. Всё, что Вы хотите узнать о погоде в Поныри!

Хотите узнать прогноз погоды в Поныри? Тогда Вам сюда: Погода в Поныри

Поиск расширенной информации на нашем сайте:

Другие новости

Новости СМИ2

Главная страница сайта

Новости сайта

03.07.2017

Напоминаем, что на нашем специализированном сайте Метеоцентр.Азия вы можете получить высокодетализированные автоматические прогнозы погоды по пунктам России, СНГ и мира в авиационном формате (включающие направление и скорость ветра, видимость, явления погоды, количество и форму облачности, нижнюю и верхнюю границу облачности).


Погода в Поныри - сегодня

Время (UTC), дата Ветер
(°,м/с) 
Видим.   Явления Облачность Т
(°С)
Тd
(°С)
f(%) Тe
(°С)
Pmin
(гПа)
dP
(гПа)
Po
(мм)
O2
(г/м3)
Тmin Tmax R s Состояние
почвы
12 16.09.17 280 (З) 20000 м    8/0 верхняя 
[Ci fib]
+18.2 +7.1 48 +19  1021.3  744  280           
15 16.09.17 310 (СЗ) 20000 м    8/0 верхняя 
[Ci fib]
+17.4 +7.6 53 +18  1021  -0.3  744  280           
21 16.09.17 110 (В) 10 км    4/0 средняя 
[Ac trans]
+9.8 +7.6 86 +11  1022.7  744  288           
00 17.09.17 090 (В) 10 км    8/0 средняя 
[Ac trans]
+11.1 +8 81 +12  1023.4  0.7  745  287           
09 17.09.17 160 (Ю) 20000 м    ясно 
+21.4 +7.6 41 +21  1021.5  -0.7  744  277           
12 17.09.17 160 (Ю) 20000 м    ясно 
+24.2 +6.7 32 +24  1019.4  -1.9  743  274           
15 17.09.17 140 (ЮВ) 20000 м    ясно 
+23.8 +8.8 38 +24  1017.8  -1.6  742  273           
21 17.09.17 130 (ЮВ) 20000 м    ясно 
+16.1 +7.7 57 +16  1016.5  -1.8  740  280           
00 18.09.17 130 (ЮВ) 20000 м    ясно 
+14.6 +7.8 64 +15  1015.4  -1.1  739  281           
09 18.09.17 190 (Ю) 4-10{10}  20000 м    ясно 
+26.7 +12.8 42 +32  1008.4  -1.6  735  267           
18 18.09.17 250 (З) 20000 м  {ливн. осадки}  ясно 
+18 +9.4 57 +20  1010.4  0.9  736  276    +28.7  0.0     
21 18.09.17 250 (З) 20000 м    ясно 
+14.6 +8.5 67 +15  1011.6  0.9  737  280           
00 19.09.17 240 (ЮЗ) 20000 м    ясно 
+11.8 +6.2 69 +12  1013.2  0.9  737  284           
03 19.09.17 240 (ЮЗ) 20000 м    ясно 
+9.5 +5.8 78 +9  1014  0.9  738  286  +9.3         
06 19.09.17 260 (З) 20000 м    ясно 
+11.8 +6.2 69 +11  1015.7  1.9  739  285  +8.5         
09 19.09.17 260 (З) 20000 м    ясно 
+15.8 +5.3 50 +16  1016.9  1.5  740  281           
12 19.09.17 270 (З) 20000 м    ясно 
+18.1 +6.1 45 +18  1017.7  741  279           
15 19.09.17 300 (СЗ) 20000 м    ясно 
+17.8 +5.9 46 +19  1018.3  0.6  742  280           
18 19.09.17 010 (С) 20000 м    ясно 
+11.3 +5.9 69 +12  1020.6  1.5  743  286    +18.9       
21 19.09.17 100 (В) 10 км    ясно 
+8.3 +5 80 +9  1021.9  744  290           
00 20.09.17 090 (В) 10 км    ясно 
+6.2 +4.3 88 +7  1022.7  0.6  744  292           
03 20.09.17 100 (В) 10 км    9/9 600 м 
[Sc]
+8.6 +5.9 83 +9  1022.7  0.3  744  290  +5.7         
06 20.09.17 090 (В) 20000 м    9/9 600 м 
[Sc]
+11.6 +6.5 71 +11  1023.2  0.7  745  287  +5.7         
09 20.09.17 110 (В) 3{10}  20000 м    8/8 600 м 
[Sc]
+16 +5.6 50 +16  1022.6  -0.2  745  283           
12 20.09.17 100 (В) 20000 м    8/0 верхняя 
[Ci fib]
+19.5 +5.1 39 +20  1021.1  -1  744  279           
Время (UTC), дата Ветер
(°,м/с) 
Видим.   Явления Облачность Т
(°С)
Тd
(°С)
f(%) Тe
(°С)
Pmin
(гПа)
dP
(гПа)
Po
(мм)
O2
(г/м3)
Тmin Tmax R s Состояние
почвы

Для получения пояснительной информации подведите курсор к названию столбца.

ПОГОДА в Поныри - архив

Всё, что Вы хотите узнать о погоде в Поныри - удобно и подробно!

Выберите нужную дату (начиная с 1 января 2015* года) и нажмите кнопку "Найти".
Будут отображены архивные сводки погоды по пункту Поныри, начиная с указанной даты.


Отображать данные в формате CSV (для использования в таблицах Excel)


Внимание! Наш архив погоды предназначен исключительно для личного некоммерческого использования в познавательных целях. Если Вам необходимы официальные справки о состоянии погоды (для производственных, юридических, коммерческих и т.п. целей), обращайтесь в органы Росгидромета.

*Примечание: данная дата относится к архиву по метеостанциям СССР (Россия, СНГ, Балтия).
Архив по метеостанциям Зарубежной Европы и Азии (кроме Китая) хранится 10 дней, по другим регионам земного шара (Китай, Африка, Америка, Австралия, Океания) - 1 день.

Поныри - район местоположения метеостанции


Название, широта, долгота, высота метеостанции:
Поныри 52.3°ш. 36.3°д. 251 м над ур. моря [Российская Федерация]

Дополнительная информация

В oтличие oт бoльшинства пoгoдных сайтoв мы публикуем пoдрoбную метеoинфoрмацию в детальнoм прoфессиoнальнoм фoрмате.

Характеристики температуры и влажнoсти вoздуха измеряются на высoте 2 м в тени вдали oт зданий и деревьев.
Скoрoсть ветра измеряется на высoте 10 м (на урoвне рoста челoвека скoрoсть ветра ниже в 1.5-2 раза). Если метеoстанция нахoдится в гoрoде или в лесу, тo скoрoсть ветра занижена на 2-4 м/с пo сравнению с oткрытым местoм. Скoрoсть ветра над акватoриями крупных рек и oзёр, а также на вершинах хoлмoв на 2-5 м/с выше, чем в oбычных услoвиях.
Атмoсфернoе давление в разных тoчках местнoсти мoжет значительнo oтличаться oт давления на метеoстанции, в зависимoсти oт услoвий рельефа (при пoдъёме на 10 м давление пoнижается примернo на 1 мм рт.ст.).